Tracking 25372 objects as of 23-Jan-2022
HD Live streaming from Space Station
objects crossing your sky now

STARLINK-2303

Track STARLINK-2303 now!
10-day predictions
STARLINK-2303 is classified as:


NORAD ID: 47981
Int'l Code: 2021-024E
Perigee: 553.1 km
Apogee: 555.6 km
Inclination: 53.1 °
Period: 95.6 minutes
Semi major axis: 6925 km
RCS: Unknown
Launch date: March 24, 2021
Source: United States (US)
Launch site: AIR FORCE EASTERN TEST RANGE (AFETR)
aabbcc
Your satellite tracking list
Your tracking list is empty




NASA's NSSDC Master Catalog

Two Line Element Set (TLE):
1 47981U 21024E   22022.96023877  .00001310  00000-0  10685-3 0  9996
2 47981  53.0520 260.5991 0001855  68.3188 291.7998 15.06402703 47465
Source of the keplerian elements: AFSPC